Regional Weather Roundup
Issued by NWS

Home | Current Version | Previous Version | Text Only | Print | Product List | Glossary Off
Versions: 1 2 3 4 5 6 7 8 9 10 11 12 13 14 15 16 17 18 19 20 21 22 23 24 25 26 27 28 29 30 31 32 33 34 35 36 37 38 39 40 41 42 43 44 45 46 47 48

000
ASUS43 KDMX 201807
RWRIA

WEATHER ROUNDUP FOR IOWA
NATIONAL WEATHER SERVICE DES MOINES IA
100 PM CDT SAT SEP 20 2014

NOTE: "FAIR" INDICATES FEW OR NO CLOUDS BELOW 12,000 FEET WITH NO
SIGNIFICANT WEATHER AND/OR OBSTRUCTIONS TO VISIBILITY.

* - THESE STATIONS ARE NOT NWS STATIONS...THUS NOT UNDER NWS
QUALITY CONTROL.  THEY ALSO DO NOT REPORT WEATHER SUCH
AS PRECIPITATION OR FOG.

IAZ001>003-012>014-020>022-031>034-043>046-201900-
   NORTHWEST IOWA

CITY           SKY/WX    TMP DP  RH WIND       PRES   REMARKS
CARROLL *      SUNNY     79  64  61 NW13G20   29.90R HX  81
CHEROKEE *     SUNNY     79  57  47 NW9       29.90S HX  80
DENISON *      SUNNY     79  64  61 NW8       29.90S HX  81
LE MARS *      SUNNY     79  59  50 W12       29.92S HX  80
ORANGE CITY *  SUNNY     79  55  44 NW13      29.92S
SHELDON *      SUNNY     79  59  50 W12       29.89F HX  80
SIOUX CITY     SUNNY     80  63  55 W8        29.92F HX  81
6HR MIN TEMP:  61; 6HR MAX TEMP:  80; 6HR PCP:  0.01;

SPENCER        SUNNY     79  57  46 W14G22    29.89S HX  80
6HR MIN TEMP:  64; 6HR MAX TEMP:  79; 6HR PCP:  0.02;

STORM LAKE *   SUNNY     77  64  65 NW14      29.91R
$$

IAZ055>058-069>071-079>083-090>094-201900-
   SOUTHWEST IOWA

CITY           SKY/WX    TMP DP  RH WIND       PRES   REMARKS
ATLANTIC *     SUNNY     79  66  65 SW10G17   29.89F HX  81
AUDUBON *      SUNNY     81  61  50 W5        29.92R HX  81
CLARINDA *     SUNNY     77  70  78 W12       29.94S
COUNCIL BLFS * SUNNY     79  72  78 SW12      29.92R HX  82
CRESTON *      PTSUNNY   75  68  78 W10G18    29.92F
HARLAN  *      SUNNY     81  66  61 NW13      29.95R HX  83
LAMONI         CLOUDY    75  69  81 W13       29.93F
6HR MIN TEMP:  66; 6HR MAX TEMP:  75; 6HR PCP:  0.03;

RED OAK *      MOSUNNY   77  68  73 W15G21    29.92S
SHENANDOAH *   SUNNY     77  68  73 W14       29.94S
$$

IAZ047>049-059>061-072>074-084-201900-
   CENTRAL IOWA

CITY           SKY/WX    TMP DP  RH WIND       PRES   REMARKS
AMES           PTSUNNY   78  66  66 W10       29.85F HX  80
6HR MIN TEMP:  65; 6HR MAX TEMP:  78; 6HR PCP:  0.05;

ANKENY *       PTSUNNY   73  66  78 CALM      29.85F
CHARITON *     MOSUNNY   77  66  69 SW12G18   29.92F
DES MOINES     PTSUNNY   77  66  68 S8        29.85F
6HR MIN TEMP:  67; 6HR MAX TEMP:  80; 6HR PCP:  0.01;

GRINNELL*      LGT RAIN  72  67  84 S5        29.86F
KNOXVILLE *    MOSUNNY   77  66  69 W13G20    29.89F
MARSHALLTOWN   PTSUNNY   75  67  76 W10       29.84F
6HR MIN TEMP:  66; 6HR MAX TEMP:  75; 6HR PCP:  0.01;

PELLA *        PTSUNNY   79  69  71 W8        29.90F HX  81
PERRY *          N/A     79  62  55 W9        29.87R HX  80
$$

IAZ004>006-015-016-023>025-035-036-201900-
   NORTH CENTRAL IOWA

CITY           SKY/WX    TMP DP  RH WIND       PRES   REMARKS
ALGONA *       SUNNY     77  61  57 W10G18    29.87S
CLARION *        N/A     77  63  61 W17       29.86S
ESTHERVILLE    SUNNY     77  57  50 NW14      29.87S
6HR MIN TEMP:  63; 6HR MAX TEMP:  77; 6HR PCP:  0.01;

FORT DODGE *   SUNNY     79  63  57 W13G20    29.88S HX  80
MASON CITY     SUNNY     77  63  61 W15       29.86S
6HR MIN TEMP:  64; 6HR MAX TEMP:  77; 6HR PCP:  0.30;

FOREST CITY *  SUNNY     77  61  57 NW13G18   29.86R
IOWA FALLS *     N/A     77  66  69 W12G18    29.86F
$$

IAZ007>011-017>019-026>030-037>042-050>054-066-201900-
   NORTHEAST IOWA

CITY           SKY/WX    TMP DP  RH WIND       PRES   REMARKS
CEDAR RAPIDS   TSTM      71  68  90 W8        29.89R
6HR MIN TEMP:  64; 6HR MAX TEMP:  72; 6HR PCP:  0.05;

CHARLES CITY * MOSUNNY   75  64  69 W10       29.84S
CLINTON *      CLOUDY    68  64  88 SW14      29.90F
DECORAH *      SUNNY     73  64  73 W9G15     29.80S
DUBUQUE        CLOUDY    71  63  75 SW17      29.83F
6HR MIN TEMP:  63; 6HR MAX TEMP:  73;

MONTICELLO *   LGT RAIN  70  66  88 S8        29.83F
OELWEIN *      SUNNY     72  66  83 SW12G17   29.85R
WATERLOO       MOSUNNY   76  65  68 W10       29.83R
6HR MIN TEMP:  65; 6HR MAX TEMP:  76; 6HR PCP:  0.01;

$$

IAZ064-065-067-068-078-201900-
   EAST CENTRAL IOWA

CITY           SKY/WX    TMP DP  RH WIND       PRES   REMARKS
DAVENPORT      CLOUDY    73  65  75 NW7       29.89F
6HR MIN TEMP:  64; 6HR MAX TEMP:  74;

IOWA CITY      CLOUDY    74  69  85 SW5       29.88F
6HR MIN TEMP:  66; 6HR MAX TEMP:  74; 6HR PCP: TRACE;

MT. PLEASANT * PTSUNNY   82  65  57 SW12G20   29.90S HX  83
MUSCATINE *    CLOUDY    77  68  73 W13       29.89S
QUAD CITIES    CLOUDY    78  68  71 W17G23    29.88S HX  80
6HR MIN TEMP:  63; 6HR MAX TEMP:  79; 6HR PCP: TRACE;

$$

IAZ062-063-075>077-085>089-095>099-201900-
   SOUTHEAST IOWA

CITY           SKY/WX    TMP DP  RH WIND       PRES   REMARKS
BURLINGTON     CLOUDY    80  69  69 W12       29.90F HX  83
6HR MIN TEMP:  64; 6HR MAX TEMP:  80; 6HR PCP: TRACE;

FAIRFIELD *    CLOUDY    77  66  69 W10G21    29.91R
FORT MADISON * PTSUNNY   79  68  69 SW8G17    29.93R HX  81
KEOKUK *       CLOUDY    77  70  78 W14       29.91R
OSKALOOSA *    PTSUNNY   79  68  68 NW13G18   29.90S HX  81
CENTERVILLE *  CLOUDY    73  70  88 SW7       29.96R
OTTUMWA        CLOUDY    76  67  73 W9        29.91R
6HR MIN TEMP:  66; 6HR MAX TEMP:  78;

WASHINGTON *   CLOUDY    77  68  73 W12G20    29.90S
$$

ABBREVIATIONS USED IN REMARKS
   TC - TEMPERATURES IN CELSIUS
  WCI - WIND CHILL INDEX
   HX - HEAT INDEX
  VSB - VISIBILITY
$$




USA.gov is the U.S. government's official web portal to all federal, state and local government web resources and services.